TEJ124 SCEL-SCDA

Flight info

Callsign TEJ124
Flight time 2h 7m
Altitude 32000
Route DONTI5B DONTI UQ802 GAXIR GAXIR4D
Aircraft A320/M-SDE3FGHIRWY/LB1

Departure

Time 2026-04-25 01:44
Airport Comodoro Arturo Merino Benítez International Airport (SCEL)

Arrival

Time 2026-04-25 03:51
Airport Diego Aracena International Airport (SCDA)
Time Latitude Longitude Altitude Speed Heading
2026-04-25 00:33 -33.39596 -70.79373 1565 ft 0 kts 176°
2026-04-25 01:31 -33.39593 -70.79374 1565 ft 2 kts 177°
2026-04-25 01:31 -33.39575 -70.79374 1565 ft 3 kts 180°
2026-04-25 01:32 -33.39562 -70.79374 1565 ft 3 kts 184°
2026-04-25 01:32 -33.39541 -70.79371 1565 ft 3 kts 192°
2026-04-25 01:32 -33.39517 -70.79361 1564 ft 3 kts 221°
2026-04-25 01:32 -33.39507 -70.79347 1564 ft 2 kts 263°
2026-04-25 01:33 -33.39507 -70.79344 1564 ft 3 kts 267°
2026-04-25 01:36 -33.39508 -70.79366 1564 ft 8 kts 267°
2026-04-25 01:37 -33.39513 -70.79476 1565 ft 17 kts 267°
2026-04-25 01:37 -33.39521 -70.79644 1565 ft 23 kts 267°
2026-04-25 01:37 -33.39529 -70.79845 1565 ft 23 kts 268°
2026-04-25 01:37 -33.39517 -70.80025 1566 ft 17 kts 302°
2026-04-25 01:38 -33.39475 -70.80058 1566 ft 5 kts 19°
2026-04-25 01:38 -33.39419 -70.80049 1566 ft 11 kts 356°
2026-04-25 01:38 -33.39319 -70.80056 1566 ft 17 kts 357°
2026-04-25 01:38 -33.39179 -70.80064 1566 ft 20 kts 358°
2026-04-25 01:39 -33.39020 -70.80076 1567 ft 26 kts 354°
2026-04-25 01:39 -33.38844 -70.80083 1567 ft 25 kts 355°
2026-04-25 01:39 -33.38684 -70.80093 1567 ft 20 kts 356°
2026-04-25 01:39 -33.38547 -70.80099 1567 ft 18 kts 358°
2026-04-25 01:40 -33.38403 -70.80108 1567 ft 24 kts 359°
2026-04-25 01:40 -33.38213 -70.80119 1566 ft 30 kts 357°
2026-04-25 01:40 -33.37994 -70.80130 1566 ft 24 kts 357°
2026-04-25 01:40 -33.37898 -70.80135 1566 ft 16 kts 357°
2026-04-25 01:41 -33.37763 -70.80144 1566 ft 22 kts 354°
2026-04-25 01:41 -33.37586 -70.80151 1567 ft 28 kts 358°
2026-04-25 01:41 -33.37369 -70.80161 1567 ft 34 kts 357°
2026-04-25 01:41 -33.37161 -70.80177 1567 ft 20 kts 344°
2026-04-25 01:42 -33.37108 -70.80249 1569 ft 0 kts 284°
2026-04-25 01:42 -33.37105 -70.80269 1570 ft 7 kts 276°
2026-04-25 01:43 -33.37145 -70.80360 1574 ft 19 kts 210°
2026-04-25 01:43 -33.37348 -70.80365 1573 ft 58 kts 178°
2026-04-25 01:43 -33.38019 -70.80327 1572 ft 135 kts 176°
2026-04-25 01:43 -33.39154 -70.80264 1707 ft 184 kts 176°
2026-04-25 01:44 -33.40474 -70.80194 2515 ft 193 kts 176°
2026-04-25 01:44 -33.41830 -70.80115 3295 ft 199 kts 177°
2026-04-25 01:44 -33.43275 -70.80033 3693 ft 217 kts 177°
2026-04-25 01:44 -33.44845 -70.79958 4181 ft 234 kts 181°
2026-04-25 01:45 -33.46413 -70.80580 4738 ft 248 kts 219°
2026-04-25 01:45 -33.47393 -70.82297 5345 ft 260 kts 255°
2026-04-25 01:45 -33.47647 -70.84495 5973 ft 273 kts 269°
2026-04-25 01:45 -33.47597 -70.86789 6772 ft 277 kts 274°
2026-04-25 01:46 -33.47467 -70.89103 7602 ft 280 kts 274°
2026-04-25 01:46 -33.47351 -70.91438 8446 ft 282 kts 273°
2026-04-25 01:46 -33.47276 -70.93802 8887 ft 285 kts 272°
2026-04-25 01:46 -33.46960 -70.96129 9021 ft 284 kts 290°
2026-04-25 01:47 -33.45970 -70.98168 9040 ft 284 kts 312°
2026-04-25 01:47 -33.44424 -70.99593 9466 ft 287 kts 334°
2026-04-25 01:47 -33.42545 -71.00424 10252 ft 291 kts 341°
2026-04-25 01:47 -33.40578 -71.01205 10733 ft 306 kts 341°
2026-04-25 01:48 -33.38496 -71.02031 11130 ft 324 kts 341°
2026-04-25 01:48 -33.36299 -71.02900 11506 ft 341 kts 341°
2026-04-25 01:48 -33.33991 -71.03805 11837 ft 357 kts 341°
2026-04-25 01:48 -33.31565 -71.04752 12135 ft 374 kts 341°
2026-04-25 01:49 -33.29033 -71.05740 12393 ft 391 kts 341°
2026-04-25 01:49 -33.26442 -71.06750 12775 ft 401 kts 341°
2026-04-25 01:49 -33.25541 -71.07101 12967 ft 403 kts 341°
2026-04-25 01:49 -33.23961 -71.07714 13362 ft 404 kts 341°
2026-04-25 01:50 -33.21280 -71.08755 14029 ft 407 kts 340°
2026-04-25 01:50 -33.18569 -71.09812 14593 ft 410 kts 340°
2026-04-25 01:50 -33.15847 -71.10873 15153 ft 413 kts 340°
2026-04-25 01:50 -33.13103 -71.11946 15692 ft 417 kts 340°
2026-04-25 01:51 -33.10334 -71.13028 16192 ft 420 kts 339°
2026-04-25 01:51 -33.07543 -71.14115 16673 ft 423 kts 339°
2026-04-25 01:51 -33.04734 -71.15206 17162 ft 427 kts 339°
2026-04-25 01:51 -33.01901 -71.16305 17673 ft 429 kts 339°
2026-04-25 01:52 -32.99046 -71.17412 18163 ft 432 kts 338°
2026-04-25 01:52 -32.96152 -71.18454 18604 ft 437 kts 343°
2026-04-25 01:52 -32.93124 -71.19011 19005 ft 444 kts 352°
2026-04-25 01:52 -32.90011 -71.19109 19381 ft 450 kts 355°
2026-04-25 01:53 -32.86907 -71.19168 19730 ft 453 kts 355°
2026-04-25 01:53 -32.83749 -71.19227 20067 ft 456 kts 355°
2026-04-25 01:53 -32.80561 -71.19289 20407 ft 459 kts 354°
2026-04-25 01:53 -32.77354 -71.19349 20740 ft 462 kts 354°
2026-04-25 01:54 -32.74126 -71.19407 21055 ft 465 kts 354°
2026-04-25 01:54 -32.70882 -71.19464 21366 ft 468 kts 354°
2026-04-25 01:54 -32.67611 -71.19523 21676 ft 471 kts 354°
2026-04-25 01:54 -32.64326 -71.19584 21988 ft 474 kts 354°
2026-04-25 01:55 -32.61018 -71.19645 22267 ft 477 kts 354°
2026-04-25 01:55 -32.57681 -71.19708 22536 ft 480 kts 354°
2026-04-25 01:55 -32.54343 -71.19771 22818 ft 481 kts 354°
2026-04-25 01:55 -32.50984 -71.19833 23059 ft 484 kts 354°
2026-04-25 01:56 -32.47607 -71.19894 23291 ft 486 kts 354°
2026-04-25 01:56 -32.44208 -71.19956 23534 ft 489 kts 354°
2026-04-25 01:56 -32.40800 -71.20016 23791 ft 491 kts 354°
2026-04-25 01:56 -32.37373 -71.20075 24009 ft 492 kts 353°
2026-04-25 01:57 -32.30561 -71.20197 24503 ft 492 kts 353°
2026-04-25 01:57 -32.27128 -71.20258 24825 ft 491 kts 353°
2026-04-25 01:57 -32.23721 -71.20320 25152 ft 489 kts 353°
2026-04-25 01:58 -32.20319 -71.20379 25497 ft 488 kts 353°
2026-04-25 01:58 -32.16929 -71.20436 25860 ft 487 kts 353°
2026-04-25 01:58 -32.13547 -71.20493 26222 ft 485 kts 353°
2026-04-25 01:58 -32.10174 -71.20555 26574 ft 483 kts 353°
2026-04-25 01:59 -32.06820 -71.20616 26898 ft 483 kts 352°
2026-04-25 01:59 -32.03451 -71.20679 27272 ft 481 kts 352°
2026-04-25 01:59 -32.00110 -71.20741 27607 ft 479 kts 352°
2026-04-25 01:59 -31.96823 -71.20799 27912 ft 477 kts 352°
2026-04-25 02:00 -31.93504 -71.20855 28241 ft 477 kts 352°
2026-04-25 02:00 -31.90191 -71.20911 28610 ft 475 kts 352°
2026-04-25 02:00 -31.86887 -71.20972 29012 ft 474 kts 352°
2026-04-25 02:00 -31.83594 -71.21035 29411 ft 472 kts 351°
2026-04-25 02:01 -31.80317 -71.21096 29776 ft 470 kts 351°
2026-04-25 02:01 -31.77048 -71.21137 30152 ft 470 kts 352°
2026-04-25 02:01 -31.73772 -71.21059 30448 ft 471 kts 354°
2026-04-25 02:01 -31.70500 -71.20869 30762 ft 471 kts 355°
2026-04-25 02:02 -31.67232 -71.20615 31104 ft 470 kts 355°
2026-04-25 02:02 -31.63976 -71.20342 31430 ft 468 kts 355°
2026-04-25 02:02 -31.60733 -71.20082 31745 ft 466 kts 355°
2026-04-25 02:02 -31.57503 -71.19849 32043 ft 464 kts 354°
2026-04-25 02:03 -31.54276 -71.19644 32164 ft 465 kts 354°
2026-04-25 02:03 -31.47751 -71.19286 32172 ft 472 kts 354°
2026-04-25 02:04 -31.41191 -71.18914 32168 ft 472 kts 354°
2026-04-25 02:04 -31.34628 -71.18508 32163 ft 472 kts 354°
2026-04-25 02:05 -31.28119 -71.18106 32159 ft 471 kts 354°
2026-04-25 02:05 -31.21567 -71.17713 32144 ft 471 kts 354°
2026-04-25 02:06 -31.15014 -71.17322 32144 ft 470 kts 353°
2026-04-25 02:06 -31.08471 -71.16932 32138 ft 471 kts 353°
2026-04-25 02:07 -31.01920 -71.16534 32137 ft 471 kts 353°
2026-04-25 02:07 -30.95362 -71.16145 32133 ft 471 kts 353°
2026-04-25 02:08 -30.88811 -71.15748 32139 ft 471 kts 353°
2026-04-25 02:08 -30.82315 -71.15354 32133 ft 470 kts 353°
2026-04-25 02:09 -30.75772 -71.14960 32116 ft 471 kts 353°
2026-04-25 02:09 -30.69213 -71.14571 32124 ft 471 kts 353°
2026-04-25 02:10 -30.62656 -71.14171 32125 ft 471 kts 353°
2026-04-25 02:10 -30.56124 -71.13778 32115 ft 470 kts 353°
2026-04-25 02:11 -30.49587 -71.13392 32108 ft 470 kts 352°
2026-04-25 02:11 -30.43081 -71.13009 32098 ft 470 kts 352°
2026-04-25 02:12 -30.36549 -71.12619 32105 ft 471 kts 352°
2026-04-25 02:12 -30.30009 -71.12240 32117 ft 471 kts 352°
2026-04-25 02:13 -30.23460 -71.11852 32117 ft 471 kts 353°
2026-04-25 02:13 -30.16900 -71.11240 32116 ft 475 kts 355°
2026-04-25 02:14 -30.10323 -71.10457 32114 ft 475 kts 355°
2026-04-25 02:14 -30.03771 -71.09680 32105 ft 475 kts 354°
2026-04-25 02:15 -29.97196 -71.08964 32105 ft 474 kts 354°
2026-04-25 02:15 -29.90619 -71.08280 32105 ft 474 kts 354°
2026-04-25 02:16 -29.84041 -71.07593 32102 ft 474 kts 354°
2026-04-25 02:16 -29.77465 -71.06890 32110 ft 474 kts 354°
2026-04-25 02:17 -29.70893 -71.06184 32115 ft 474 kts 354°
2026-04-25 02:17 -29.64348 -71.05483 32108 ft 475 kts 354°
2026-04-25 02:18 -29.57760 -71.04774 32092 ft 476 kts 354°
2026-04-25 02:18 -29.51181 -71.04072 32118 ft 474 kts 354°
2026-04-25 02:19 -29.44610 -71.03370 32100 ft 475 kts 354°
2026-04-25 02:19 -29.38032 -71.02446 32112 ft 477 kts 356°
2026-04-25 02:20 -29.31490 -71.01342 32113 ft 477 kts 357°
2026-04-25 02:20 -29.24930 -71.00281 32105 ft 474 kts 355°
2026-04-25 02:21 -29.18402 -70.99611 32094 ft 469 kts 352°
2026-04-25 02:21 -29.11888 -70.99133 32093 ft 468 kts 352°
2026-04-25 02:22 -29.06462 -70.98691 32086 ft 470 kts 353°
2026-04-25 02:22 -28.99932 -70.98078 32080 ft 471 kts 353°
2026-04-25 02:23 -28.93390 -70.97437 32079 ft 471 kts 353°
2026-04-25 02:23 -28.86893 -70.96816 32090 ft 471 kts 353°
2026-04-25 02:24 -28.80361 -70.96202 32079 ft 470 kts 353°
2026-04-25 02:24 -28.73829 -70.95594 32078 ft 470 kts 353°
2026-04-25 02:25 -28.67301 -70.94991 32076 ft 471 kts 353°
2026-04-25 02:25 -28.60764 -70.94380 32116 ft 469 kts 353°
2026-04-25 02:26 -28.54264 -70.93778 32094 ft 468 kts 353°
2026-04-25 02:26 -28.47766 -70.93178 32080 ft 469 kts 353°
2026-04-25 02:27 -28.41293 -70.92516 32065 ft 470 kts 354°
2026-04-25 02:27 -28.34776 -70.91816 32082 ft 470 kts 354°
2026-04-25 02:28 -28.28260 -70.91129 32080 ft 470 kts 354°
2026-04-25 02:28 -28.21742 -70.90447 32088 ft 469 kts 354°
2026-04-25 02:29 -28.15278 -70.89752 32083 ft 469 kts 354°
2026-04-25 02:29 -28.08767 -70.89055 32083 ft 469 kts 354°
2026-04-25 02:30 -28.02256 -70.88366 32076 ft 469 kts 354°
2026-04-25 02:30 -27.95752 -70.87675 32084 ft 469 kts 354°
2026-04-25 02:31 -27.89246 -70.86986 32083 ft 469 kts 354°
2026-04-25 02:31 -27.82788 -70.86307 32080 ft 469 kts 354°
2026-04-25 02:32 -27.76292 -70.85621 32076 ft 469 kts 354°
2026-04-25 02:32 -27.69785 -70.84928 32072 ft 469 kts 354°
2026-04-25 02:33 -27.63538 -70.84271 32069 ft 469 kts 354°
2026-04-25 02:33 -27.57027 -70.83590 32082 ft 469 kts 354°
2026-04-25 02:34 -27.50518 -70.82904 32079 ft 469 kts 355°
2026-04-25 02:34 -27.44052 -70.82212 32070 ft 469 kts 355°
2026-04-25 02:35 -27.37562 -70.81532 32055 ft 468 kts 355°
2026-04-25 02:35 -27.31065 -70.80853 32053 ft 469 kts 355°
2026-04-25 02:36 -27.24574 -70.80175 32051 ft 468 kts 355°
2026-04-25 02:36 -27.18085 -70.79500 32041 ft 469 kts 355°
2026-04-25 02:37 -27.11584 -70.78817 32055 ft 469 kts 355°
2026-04-25 02:37 -27.05090 -70.78131 32058 ft 468 kts 355°
2026-04-25 02:38 -26.98601 -70.77453 32058 ft 468 kts 355°
2026-04-25 02:38 -26.92113 -70.76782 32069 ft 468 kts 355°
2026-04-25 02:39 -26.85630 -70.76111 32079 ft 468 kts 355°
2026-04-25 02:39 -26.79146 -70.75432 32087 ft 468 kts 355°
2026-04-25 02:40 -26.72670 -70.74755 32092 ft 467 kts 355°
2026-04-25 02:40 -26.66208 -70.74075 32088 ft 467 kts 356°
2026-04-25 02:41 -26.59735 -70.73105 32090 ft 471 kts 360°
2026-04-25 02:41 -26.53262 -70.71891 32093 ft 472 kts
2026-04-25 02:42 -26.46790 -70.70698 32094 ft 470 kts 360°
2026-04-25 02:42 -26.40376 -70.69773 32088 ft 465 kts 356°
2026-04-25 02:43 -26.33946 -70.69278 32084 ft 462 kts 354°
2026-04-25 02:43 -26.27522 -70.68858 32076 ft 463 kts 355°
2026-04-25 02:44 -26.21087 -70.68334 32068 ft 464 kts 355°
2026-04-25 02:44 -26.14641 -70.67743 32063 ft 465 kts 356°
2026-04-25 02:45 -26.08190 -70.67151 32067 ft 465 kts 356°
2026-04-25 02:45 -26.01746 -70.66584 32085 ft 464 kts 356°
2026-04-25 02:46 -25.95306 -70.66025 32081 ft 464 kts 356°
2026-04-25 02:46 -25.88875 -70.65461 32078 ft 463 kts 356°
2026-04-25 02:47 -25.82451 -70.64892 32059 ft 463 kts 356°
2026-04-25 02:47 -25.76074 -70.64337 32056 ft 462 kts 356°
2026-04-25 02:48 -25.69673 -70.63775 32044 ft 462 kts 356°
2026-04-25 02:48 -25.63265 -70.63216 32050 ft 461 kts 356°
2026-04-25 02:49 -25.56875 -70.62658 32044 ft 460 kts 356°
2026-04-25 02:49 -25.50491 -70.62108 32036 ft 460 kts 356°
2026-04-25 02:50 -25.44108 -70.61564 32038 ft 460 kts 356°
2026-04-25 02:50 -25.37775 -70.61017 32038 ft 459 kts 357°
2026-04-25 02:51 -25.31360 -70.60458 32032 ft 460 kts 357°
2026-04-25 02:51 -25.24985 -70.59903 32024 ft 460 kts 357°
2026-04-25 02:52 -25.18603 -70.59351 32025 ft 460 kts 357°
2026-04-25 02:52 -25.12213 -70.58811 32036 ft 461 kts 357°
2026-04-25 02:53 -25.05862 -70.58268 32042 ft 461 kts 357°
2026-04-25 02:53 -24.99460 -70.57718 32041 ft 461 kts 357°
2026-04-25 02:54 -24.93061 -70.57165 32039 ft 462 kts 358°
2026-04-25 02:54 -24.86652 -70.56617 32040 ft 462 kts 358°
2026-04-25 02:55 -24.80236 -70.56067 32036 ft 462 kts 357°
2026-04-25 02:55 -24.73840 -70.55878 32037 ft 458 kts 353°
2026-04-25 02:56 -24.67479 -70.56043 32032 ft 457 kts 352°
2026-04-25 02:56 -24.61113 -70.56198 32045 ft 458 kts 353°
2026-04-25 02:57 -24.54739 -70.56247 32045 ft 458 kts 354°
2026-04-25 02:57 -24.48363 -70.56252 32038 ft 458 kts 354°
2026-04-25 02:58 -24.42037 -70.56275 32035 ft 457 kts 353°
2026-04-25 02:58 -24.35673 -70.56324 32027 ft 457 kts 353°
2026-04-25 02:59 -24.29305 -70.56371 32034 ft 458 kts 354°
2026-04-25 02:59 -24.22932 -70.56410 32029 ft 457 kts 354°
2026-04-25 03:00 -24.16566 -70.56446 32032 ft 458 kts 354°
2026-04-25 03:00 -24.10196 -70.56480 32023 ft 457 kts 354°
2026-04-25 03:01 -24.03833 -70.56522 32021 ft 457 kts 354°
2026-04-25 03:01 -23.97507 -70.56569 32023 ft 457 kts 354°
2026-04-25 03:02 -23.91141 -70.56609 32023 ft 458 kts 354°
2026-04-25 03:02 -23.84767 -70.56643 32017 ft 458 kts 354°
2026-04-25 03:03 -23.78409 -70.56682 32026 ft 458 kts 354°
2026-04-25 03:03 -23.72038 -70.56668 32030 ft 458 kts 355°
2026-04-25 03:04 -23.65656 -70.56619 32026 ft 458 kts 355°
2026-04-25 03:04 -23.59283 -70.56578 32027 ft 458 kts 355°
2026-04-25 03:05 -23.49715 -70.56539 32040 ft 457 kts 355°
2026-04-25 03:05 -23.43392 -70.56513 32031 ft 458 kts 355°
2026-04-25 03:06 -23.37003 -70.56482 32032 ft 459 kts 355°
2026-04-25 03:06 -23.30615 -70.56457 32027 ft 459 kts 355°
2026-04-25 03:07 -23.24221 -70.56432 32028 ft 459 kts 355°
2026-04-25 03:07 -23.17832 -70.56404 32030 ft 459 kts 355°
2026-04-25 03:08 -23.11437 -70.56382 32028 ft 460 kts 355°
2026-04-25 03:08 -23.05036 -70.56357 32026 ft 459 kts 356°
2026-04-25 03:09 -22.98678 -70.56326 32027 ft 460 kts 356°
2026-04-25 03:09 -22.92275 -70.56298 32027 ft 460 kts 356°
2026-04-25 03:10 -22.85863 -70.56260 32018 ft 461 kts 356°
2026-04-25 03:10 -22.80552 -70.56163 31496 ft 457 kts 357°
2026-04-25 03:11 -22.77378 -70.56089 30650 ft 456 kts 357°
2026-04-25 03:11 -22.74209 -70.56015 29673 ft 455 kts 357°
2026-04-25 03:11 -22.71030 -70.55944 28528 ft 457 kts 357°
2026-04-25 03:11 -22.67830 -70.55880 27238 ft 463 kts 358°
2026-04-25 03:12 -22.64586 -70.55822 25888 ft 470 kts 358°
2026-04-25 03:12 -22.61285 -70.55766 24502 ft 478 kts 358°
2026-04-25 03:12 -22.57923 -70.55705 23217 ft 485 kts 359°
2026-04-25 03:12 -22.54560 -70.55633 22247 ft 480 kts 359°
2026-04-25 03:13 -22.51245 -70.55559 21429 ft 474 kts 359°
2026-04-25 03:13 -22.47976 -70.55491 20640 ft 467 kts 359°
2026-04-25 03:13 -22.44741 -70.55430 19878 ft 462 kts 359°
2026-04-25 03:13 -22.41539 -70.55369 19149 ft 457 kts 359°
2026-04-25 03:14 -22.38377 -70.55308 18446 ft 452 kts 359°
2026-04-25 03:14 -22.35245 -70.55249 17670 ft 447 kts 359°
2026-04-25 03:14 -22.32152 -70.55196 16924 ft 443 kts 359°
2026-04-25 03:14 -22.29084 -70.55142 16191 ft 439 kts 359°
2026-04-25 03:15 -22.26041 -70.55087 15501 ft 435 kts 360°
2026-04-25 03:15 -22.23027 -70.55029 14826 ft 432 kts
2026-04-25 03:15 -22.20037 -70.54970 14160 ft 428 kts
2026-04-25 03:15 -22.17071 -70.54913 13493 ft 425 kts
2026-04-25 03:16 -22.14166 -70.54858 12841 ft 420 kts
2026-04-25 03:16 -22.11268 -70.54803 12199 ft 414 kts
2026-04-25 03:16 -22.08404 -70.54744 11568 ft 409 kts
2026-04-25 03:16 -22.05582 -70.54685 10934 ft 403 kts
2026-04-25 03:17 -22.02797 -70.54631 10342 ft 398 kts
2026-04-25 03:17 -22.00036 -70.54581 10114 ft 396 kts
2026-04-25 03:17 -21.97328 -70.54531 10031 ft 378 kts
2026-04-25 03:17 -21.94777 -70.54483 10051 ft 355 kts
2026-04-25 03:18 -21.92384 -70.54437 10057 ft 334 kts
2026-04-25 03:18 -21.90129 -70.54382 10054 ft 314 kts
2026-04-25 03:18 -21.88018 -70.54159 10057 ft 296 kts
2026-04-25 03:18 -21.86018 -70.53790 10053 ft 292 kts 10°
2026-04-25 03:19 -21.84019 -70.53413 10058 ft 290 kts 10°
2026-04-25 03:19 -21.82081 -70.53051 10055 ft 274 kts 10°
2026-04-25 03:19 -21.80258 -70.52712 10059 ft 258 kts 10°
2026-04-25 03:19 -21.78547 -70.52393 10059 ft 242 kts 10°
2026-04-25 03:20 -21.76885 -70.52083 10062 ft 243 kts 10°
2026-04-25 03:20 -21.75216 -70.51769 10058 ft 243 kts 10°
2026-04-25 03:20 -21.73552 -70.51457 10058 ft 243 kts 10°
2026-04-25 03:20 -21.71906 -70.51149 10059 ft 243 kts 10°
2026-04-25 03:21 -21.70242 -70.50839 10063 ft 243 kts 10°
2026-04-25 03:21 -21.68583 -70.50530 9942 ft 242 kts 10°
2026-04-25 03:21 -21.66929 -70.50223 9597 ft 241 kts 10°
2026-04-25 03:21 -21.65276 -70.49915 9201 ft 241 kts 10°
2026-04-25 03:22 -21.63617 -70.49605 8797 ft 242 kts 10°
2026-04-25 03:22 -21.61954 -70.49294 8394 ft 243 kts 10°
2026-04-25 03:22 -21.60280 -70.48981 7990 ft 244 kts 10°
2026-04-25 03:22 -21.58602 -70.48667 7597 ft 245 kts 10°
2026-04-25 03:23 -21.56918 -70.48354 7235 ft 245 kts 10°
2026-04-25 03:23 -21.55237 -70.48041 6870 ft 245 kts 10°
2026-04-25 03:23 -21.53557 -70.47729 6514 ft 245 kts 10°
2026-04-25 03:23 -21.51875 -70.47418 6145 ft 245 kts 10°
2026-04-25 03:24 -21.50194 -70.47107 6016 ft 246 kts 10°
2026-04-25 03:24 -21.48501 -70.46793 6020 ft 247 kts 10°
2026-04-25 03:24 -21.46802 -70.46475 6020 ft 247 kts 10°
2026-04-25 03:24 -21.45133 -70.46163 6022 ft 247 kts 10°
2026-04-25 03:25 -21.43440 -70.45847 6013 ft 247 kts 10°
2026-04-25 03:25 -21.41744 -70.45531 6024 ft 248 kts 10°
2026-04-25 03:25 -21.40044 -70.45215 6018 ft 248 kts 10°
2026-04-25 03:25 -21.38348 -70.44899 6025 ft 247 kts 10°
2026-04-25 03:26 -21.36653 -70.44581 6025 ft 247 kts 10°
2026-04-25 03:26 -21.34957 -70.44267 6014 ft 247 kts 10°
2026-04-25 03:26 -21.33260 -70.43955 6015 ft 247 kts 10°
2026-04-25 03:26 -21.31563 -70.43643 6026 ft 247 kts 10°
2026-04-25 03:27 -21.29870 -70.43331 6019 ft 247 kts 10°
2026-04-25 03:27 -21.28174 -70.43015 6019 ft 247 kts 10°
2026-04-25 03:27 -21.26457 -70.42693 6026 ft 261 kts 10°
2026-04-25 03:27 -21.24567 -70.42340 6020 ft 291 kts 10°
2026-04-25 03:28 -21.22469 -70.41950 6021 ft 320 kts 10°
2026-04-25 03:28 -21.20245 -70.41538 6021 ft 325 kts 10°
2026-04-25 03:28 -21.18017 -70.41126 6020 ft 325 kts 10°
2026-04-25 03:28 -21.15786 -70.40714 6026 ft 325 kts 10°
2026-04-25 03:29 -21.13560 -70.40303 6026 ft 325 kts 10°
2026-04-25 03:29 -21.11329 -70.39890 6027 ft 325 kts 10°
2026-04-25 03:29 -21.09099 -70.39477 6026 ft 325 kts 10°
2026-04-25 03:29 -21.06871 -70.39064 6027 ft 325 kts 10°
2026-04-25 03:30 -21.04643 -70.38650 6026 ft 325 kts 10°
2026-04-25 03:30 -21.02412 -70.38235 6024 ft 325 kts 10°
2026-04-25 03:30 -21.00211 -70.37827 6026 ft 325 kts
2026-04-25 03:30 -20.97979 -70.37416 6027 ft 326 kts
2026-04-25 03:31 -20.95746 -70.37005 6029 ft 325 kts 10°
2026-04-25 03:31 -20.93516 -70.36594 6029 ft 325 kts 10°
2026-04-25 03:31 -20.91286 -70.36183 6027 ft 325 kts 10°
2026-04-25 03:31 -20.89052 -70.35770 6029 ft 325 kts 10°
2026-04-25 03:32 -20.86822 -70.35359 6030 ft 325 kts 10°
2026-04-25 03:32 -20.84599 -70.34916 6024 ft 325 kts 13°
2026-04-25 03:32 -20.82416 -70.34294 6026 ft 325 kts 15°
2026-04-25 03:32 -20.80238 -70.33658 6025 ft 325 kts 15°
2026-04-25 03:33 -20.78054 -70.33021 6026 ft 325 kts 15°
2026-04-25 03:33 -20.75873 -70.32385 6023 ft 325 kts 15°
2026-04-25 03:33 -20.73695 -70.31751 6022 ft 325 kts 15°
2026-04-25 03:33 -20.71512 -70.31116 6019 ft 325 kts 15°
2026-04-25 03:34 -20.69333 -70.30482 6016 ft 324 kts 15°
2026-04-25 03:34 -20.67152 -70.29850 6017 ft 325 kts 15°
2026-04-25 03:34 -20.64973 -70.29219 6011 ft 324 kts 15°
2026-04-25 03:34 -20.62793 -70.28590 6013 ft 325 kts 15°
2026-04-25 03:35 -20.60621 -70.27919 6008 ft 324 kts 22°
2026-04-25 03:35 -20.58824 -70.26583 6006 ft 320 kts 52°
2026-04-25 03:35 -20.57570 -70.24633 6012 ft 319 kts 56°
2026-04-25 03:35 -20.55955 -70.23016 6010 ft 322 kts 31°
2026-04-25 03:36 -20.53857 -70.22207 6012 ft 323 kts
2026-04-25 03:36 -20.51632 -70.21851 6004 ft 323 kts
2026-04-25 03:36 -20.49408 -70.21479 6009 ft 323 kts
2026-04-25 03:36 -20.47320 -70.21113 6012 ft 323 kts
2026-04-25 03:37 -20.45095 -70.20714 6006 ft 332 kts 10°
2026-04-25 03:37 -20.42713 -70.20283 6008 ft 359 kts
2026-04-25 03:37 -20.40235 -70.19840 6013 ft 361 kts
2026-04-25 03:37 -20.37760 -70.19400 6016 ft 361 kts
2026-04-25 03:38 -20.35287 -70.18961 6014 ft 360 kts
2026-04-25 03:38 -20.32810 -70.18525 6015 ft 360 kts
2026-04-25 03:38 -20.30336 -70.18092 6022 ft 360 kts
2026-04-25 03:38 -20.27867 -70.17659 6029 ft 360 kts
2026-04-25 03:39 -20.25397 -70.17222 6024 ft 360 kts
2026-04-25 03:39 -20.22931 -70.16786 6033 ft 359 kts
2026-04-25 03:39 -20.20459 -70.16369 6035 ft 359 kts
2026-04-25 03:39 -20.18004 -70.16113 6038 ft 359 kts
2026-04-25 03:40 -20.15506 -70.16012 6032 ft 359 kts 358°
2026-04-25 03:40 -20.13067 -70.16504 5996 ft 357 kts 340°
2026-04-25 03:40 -20.10915 -70.17761 5576 ft 351 kts 320°
2026-04-25 03:40 -20.09307 -70.19668 4944 ft 345 kts 301°
2026-04-25 03:41 -20.08383 -70.21994 4285 ft 339 kts 283°
2026-04-25 03:41 -20.08186 -70.24462 3721 ft 335 kts 265°
2026-04-25 03:41 -20.08705 -70.26869 3541 ft 336 kts 249°
2026-04-25 03:41 -20.09877 -70.29009 3525 ft 336 kts 231°
2026-04-25 03:42 -20.11610 -70.30676 3527 ft 337 kts 213°
2026-04-25 03:42 -20.13744 -70.31687 3533 ft 338 kts 194°
2026-04-25 03:42 -20.16076 -70.31934 3533 ft 338 kts 175°
2026-04-25 03:42 -20.18322 -70.31258 3531 ft 338 kts 155°
2026-04-25 03:43 -20.20407 -70.30190 3529 ft 322 kts 153°
2026-04-25 03:43 -20.22331 -70.29150 3525 ft 298 kts 153°
2026-04-25 03:43 -20.24108 -70.28182 3527 ft 276 kts 153°
2026-04-25 03:43 -20.25732 -70.27297 3534 ft 247 kts 152°
2026-04-25 03:44 -20.27174 -70.26511 3534 ft 221 kts 152°
2026-04-25 03:44 -20.28525 -70.25774 3523 ft 207 kts 152°
2026-04-25 03:44 -20.29722 -70.25121 3552 ft 180 kts 152°
2026-04-25 03:44 -20.30767 -70.24552 3523 ft 158 kts 152°
2026-04-25 03:45 -20.31730 -70.24026 3524 ft 156 kts 152°
2026-04-25 03:45 -20.32693 -70.23501 3520 ft 156 kts 152°
2026-04-25 03:45 -20.33658 -70.22974 3519 ft 156 kts 152°
2026-04-25 03:45 -20.34621 -70.22449 3506 ft 156 kts 152°
2026-04-25 03:46 -20.35583 -70.21924 3396 ft 155 kts 152°
2026-04-25 03:46 -20.36545 -70.21399 3228 ft 155 kts 152°
2026-04-25 03:46 -20.37497 -70.20866 3018 ft 156 kts 139°
2026-04-25 03:46 -20.38140 -70.19936 2529 ft 157 kts 121°
2026-04-25 03:47 -20.38785 -70.18906 2005 ft 167 kts 133°
2026-04-25 03:47 -20.39587 -70.18106 1894 ft 149 kts 147°
2026-04-25 03:47 -20.40548 -70.17786 1949 ft 147 kts 170°
2026-04-25 03:47 -20.41544 -70.17653 1982 ft 141 kts 176°
2026-04-25 03:48 -20.42517 -70.17618 1956 ft 141 kts 180°
2026-04-25 03:48 -20.43509 -70.17629 1827 ft 140 kts 182°
2026-04-25 03:48 -20.44486 -70.17662 1660 ft 140 kts 182°
2026-04-25 03:48 -20.45440 -70.17704 1459 ft 138 kts 183°
2026-04-25 03:49 -20.46394 -70.17751 1279 ft 137 kts 184°
2026-04-25 03:49 -20.47347 -70.17799 1089 ft 137 kts 184°
2026-04-25 03:49 -20.48296 -70.17849 904 ft 137 kts 184°
2026-04-25 03:49 -20.49248 -70.17899 720 ft 137 kts 184°
2026-04-25 03:50 -20.50200 -70.17950 528 ft 137 kts 184°
2026-04-25 03:50 -20.51143 -70.18000 337 ft 135 kts 184°
2026-04-25 03:50 -20.52076 -70.18050 183 ft 130 kts 182°
2026-04-25 03:50 -20.52825 -70.18090 175 ft 70 kts 183°
2026-04-25 03:51 -20.53030 -70.18100 176 ft 9 kts 183°
2026-04-25 03:51 -20.53169 -70.18110 175 ft 30 kts 185°
2026-04-25 03:51 -20.53427 -70.18120 175 ft 43 kts 183°
2026-04-25 03:51 -20.53760 -70.18146 174 ft 53 kts 186°
2026-04-25 03:52 -20.54134 -70.18160 175 ft 53 kts 184°
2026-04-25 03:52 -20.54358 -70.18156 177 ft 10 kts 163°
2026-04-25 03:52 -20.54465 -70.18087 175 ft 11 kts 147°
2026-04-25 03:52 -20.54468 -70.18085 175 ft 0 kts 147°
2026-04-25 03:53 -20.54503 -70.18061 175 ft 17 kts 149°
2026-04-25 03:53 -20.54599 -70.17994 175 ft 4 kts 110°
2026-04-25 03:53 -20.54605 -70.17935 175 ft 8 kts 94°
2026-04-25 03:54 -20.54607 -70.17912 175 ft 4 kts 94°
2026-04-25 03:54 -20.54607 -70.17907 175 ft 0 kts 94°